カタログに戻る

CENTISPACE-1 S5

運用中ナビゲーションLEO
NORAD 54020·PAYLOAD·🇨🇳 China

打ち上げ Oct 7, 2022 から Yellow Sea Launch Area

Loading…

次のパス (今後24時間)

TLE

最新Source: Space-Track

元期: Sep 14, 2026, 20:32 UTC

1 54020U 22126A   26257.85585542  .00000577  00000-0  14781-3 0  9991
2 54020  54.9981 214.0951 0009964 272.3834  87.6020 14.63141515210162

AllMySatでCENTISPACE-1 S5をリアルタイム追跡

Download on the App Store